FW1704 Weather Reports


time (UTC)temp
C
wind
direction
speed
KPH
gust
KPH
rain 1hr
cm
rain 24hr
cm
rain mn
cm
humidity
%
barometer
mb
20260510164552 26 0 3.2 12.9 0.03 2.79 0.28 78 1017.5
20260510164050 26 35 4.8 12.9 0.03 2.79 0.28 76 1017.6
20260510163551 26 43 3.2 8.0 0.03 2.79 0.28 79 1017.6
20260510163055 26 62 3.2 8.0 0.03 2.79 0.28 78 1017.5
20260510162549 26 319 0.0 11.3 0.03 2.79 0.28 80 1017.6
20260510162053 25 71 3.2 11.3 0.03 2.79 0.28 81 1017.5
20260510161555 25 29 1.6 9.7 0.03 2.79 0.28 82 1017.6
20260510161051 25 0 1.6 9.7 0.03 2.79 0.28 85 1017.7
20260510160551 25 90 1.6 6.4 0.00 2.77 0.25 87 1017.7
20260510155552 24 0 1.6 6.4 0.00 3.33 0.25 91 1017.7
20260510155053 24 293 1.6 9.7 0.03 3.33 0.25 92 1017.6
20260510154556 23 148 0.0 9.7 0.03 3.33 0.25 93 1017.6
20260510154052 22 136 1.6 9.7 0.03 3.33 0.25 94 1017.7
20260510153552 22 242 1.6 6.4 0.03 3.33 0.25 94 1017.6
20260510153054 22 104 3.2 8.0 0.03 3.33 0.25 94 1017.6
20260510152549 22 25 1.6 8.0 0.03 3.33 0.25 94 1017.6
20260510152051 22 71 1.6 8.0 0.03 3.33 0.25 94 1017.5
20260510151558 21 73 1.6 9.7 0.03 3.33 0.25 95 1017.6
20260510151053 21 49 1.6 9.7 0.03 3.33 0.25 95 1017.6
20260510150552 21 119 3.2 9.7 0.03 3.33 0.25 95 1017.6
20260510150057 21 132 1.6 9.7 0.03 3.33 0.25 95 1017.6
20260510145551 21 69 1.6 9.7 0.03 4.19 0.25 95 1017.7
20260510145051 20 51 3.2 9.7 0.00 4.17 0.23 95 1017.8
20260510144552 21 66 1.6 8.0 0.00 4.17 0.23 95 1017.8
20260510144052 20 55 1.6 8.0 0.00 4.17 0.23 95 1017.9
20260510143552 20 44 1.6 9.7 0.03 4.17 0.23 95 1017.8
20260510143053 20 150 1.6 9.7 0.03 4.17 0.23 95 1017.8
20260510142552 20 126 3.2 9.7 0.03 4.17 0.23 95 1017.9
20260510142051 20 89 1.6 8.0 0.03 4.17 0.23 95 1017.9
20260510141558 20 143 1.6 6.4 0.03 4.17 0.23 95 1017.9
20260510141050 20 48 1.6 6.4 0.03 4.17 0.23 95 1018.0
20260510140549 20 0 3.2 6.4 0.03 4.17 0.23 94 1018.1
20260510140057 20 149 0.0 6.4 0.03 4.17 0.23 95 1018.0
20260510135552 20 88 1.6 6.4 0.03 5.56 0.23 95 1017.7
20260510135053 20 0 1.6 6.4 0.03 5.56 0.23 95 1017.7
20260510134604 19 326 1.6 6.4 0.03 5.56 0.23 95 1017.6
20260510134050 19 11 0.0 8.0 0.03 5.56 0.23 95 1017.8
20260510133553 19 85 1.6 8.0 0.00 5.54 0.20 95 1017.6
20260510133054 19 52 0.0 6.4 0.00 5.54 0.20 95 1017.4
20260510132551 19 69 1.6 6.4 0.00 5.54 0.20 95 1017.5
20260510132052 19 56 0.0 6.4 0.00 5.54 0.20 95 1017.4
20260510131553 19 82 1.6 6.4 0.03 5.54 0.20 95 1017.4
20260510131051 19 0 1.6 4.8 0.03 5.54 0.20 95 1017.4
20260510130552 19 30 0.0 4.8 0.03 5.54 0.20 95 1017.1
20260510130056 18 46 1.6 4.8 0.03 5.54 0.20 95 1017.0
20260510125551 18 109 1.6 8.0 0.03 6.32 0.20 95 1016.9
20260510125050 18 0 1.6 8.0 0.03 6.32 0.20 95 1017.1
20260510124559 18 75 1.6 6.4 0.03 6.32 0.20 95 1017.0
20260510124050 18 60 1.6 6.4 0.03 6.32 0.20 95 1016.9
20260510123625 18 105 1.6 4.8 0.03 6.32 0.20 95 1016.8
20260510123117 18 134 0.0 4.8 0.03 6.32 0.20 95 1016.8
20260510122549 18 63 1.6 4.8 0.03 6.32 0.20 94 1016.6
20260510122052 18 0 0.0 4.8 0.03 6.32 0.20 94 1016.6
20260510121556 18 136 0.0 4.8 0.00 6.30 0.18 94 1016.6
20260510121049 18 71 1.6 6.4 0.00 6.30 0.18 95 1016.4
20260510120550 18 140 0.0 6.4 0.00 6.30 0.18 95 1016.3
20260510120059 18 0 3.2 6.4 0.03 6.30 0.18 95 1016.1
20260510115551 18 82 3.2 6.4 0.03 6.30 0.18 95 1016.0
20260510115052 18 62 1.6 6.4 0.03 6.30 0.18 95 1016.1
20260510114602 18 40 0.0 6.4 0.03 6.30 0.18 95 1016.0
20260510114052 18 0 1.6 4.8 0.03 6.30 0.18 95 1015.8
20260510113549 18 62 1.6 4.8 0.03 6.30 0.18 95 1015.6
20260510113056 18 258 0.0 4.8 0.03 6.30 0.18 95 1015.7
20260510112550 18 67 1.6 4.8 0.03 6.30 0.18 95 1015.5
20260510112050 18 0 0.0 4.8 0.03 6.30 0.18 94 1015.4
20260510111557 18 0 0.0 6.4 0.03 6.30 0.18 94 1015.3
20260510111049 18 78 1.6 6.4 0.03 6.30 0.18 94 1015.1
20260510110548 18 50 0.0 4.8 0.03 6.30 0.18 94 1014.9
20260510110058 18 0 0.0 3.2 0.00 6.27 0.15 95 1014.9
20260510105553 18 47 0.0 4.8 0.00 6.30 0.15 94 1014.8
20260510105050 18 92 0.0 4.8 0.03 6.30 0.15 94 1014.6
20260510104555 18 92 1.6 4.8 0.03 6.30 0.15 94 1014.5
20260510104051 18 67 1.6 4.8 0.03 6.30 0.15 94 1014.6
20260510103551 18 95 1.6 4.8 0.03 6.30 0.15 94 1014.4
20260510103108 18 0 0.0 4.8 0.03 6.30 0.15 94 1014.5
20260510102551 18 102 0.0 3.2 0.03 6.30 0.15 94 1014.4
20260510102049 18 0 0.0 3.2 0.03 6.30 0.15 94 1014.4
20260510101605 18 61 1.6 6.4 0.03 6.30 0.15 94 1014.3
20260510101049 18 77 0.0 6.4 0.03 6.30 0.15 94 1014.2
20260510100553 18 99 1.6 6.4 0.03 6.30 0.15 94 1014.2
20260510100104 18 76 1.6 6.4 0.03 6.30 0.15 94 1014.1
20260510095550 18 78 1.6 4.8 0.00 6.35 0.13 94 1014.0
20260510095049 18 88 0.0 4.8 0.03 6.35 0.13 94 1014.0
20260510094556 18 0 1.6 4.8 0.03 6.35 0.13 94 1014.0
20260510094049 18 0 1.6 6.4 0.03 6.35 0.13 94 1013.9
20260510093549 18 90 1.6 6.4 0.03 6.35 0.13 94 1013.9
20260510093056 18 65 1.6 6.4 0.03 6.35 0.13 94 1013.9
20260510092553 18 13 3.2 6.4 0.03 6.35 0.13 94 1014.0
20260510092049 18 75 3.2 6.4 0.03 6.35 0.13 94 1013.9
20260510091556 18 77 1.6 6.4 0.03 6.35 0.13 94 1014.0
20260510091050 18 82 1.6 4.8 0.03 6.35 0.13 94 1014.1
20260510090550 18 69 1.6 4.8 0.03 6.35 0.13 94 1014.2
20260510090055 18 87 0.0 3.2 0.03 6.35 0.13 94 1014.2
20260510085549 18 0 0.0 6.4 0.03 6.63 0.13 94 1014.2
20260510085049 18 46 1.6 6.4 0.03 6.60 0.10 94 1014.2
20260510084552 18 10 0.0 4.8 0.03 6.60 0.10 94 1014.1
20260510084050 18 0 0.0 3.2 0.03 6.60 0.10 94 1014.1
20260510083550 18 53 0.0 4.8 0.03 6.60 0.10 94 1014.1
20260510083055 18 84 0.0 6.4 0.03 6.60 0.10 94 1014.1
20260510082551 18 59 1.6 6.4 0.03 6.60 0.10 94 1014.1
20260510082050 18 61 1.6 6.4 0.03 6.60 0.10 94 1013.9
20260510081557 18 50 1.6 4.8 0.03 6.60 0.10 94 1014.0
20260510081053 18 5 1.6 4.8 0.03 6.60 0.10 94 1013.9
20260510080550 18 61 0.0 4.8 0.03 6.60 0.10 94 1013.8
20260510080055 18 5 0.0 3.2 0.03 6.60 0.10 94 1013.8
20260510075553 18 0 0.0 3.2 0.05 7.04 0.10 94 1013.7
20260510075054 18 0 0.0 3.2 0.03 7.01 0.08 94 1013.6
20260510074602 18 88 0.0 3.2 0.03 7.01 0.08 94 1013.6
20260510074050 18 0 0.0 3.2 0.03 7.01 0.08 94 1013.7
20260510073551 18 88 0.0 3.2 0.03 7.01 0.08 94 1013.6
20260510073103 18 88 0.0 3.2 0.03 7.01 0.08 94 1013.6
20260510072553 18 0 0.0 4.8 0.03 7.01 0.08 94 1013.7
20260510072055 18 0 0.0 4.8 0.03 7.01 0.08 94 1013.6
20260510071552 18 0 0.0 3.2 0.03 7.01 0.08 94 1013.6
20260510071052 18 5 0.0 3.2 0.03 7.01 0.08 94 1013.6
20260510070551 18 65 1.6 4.8 0.03 7.01 0.08 94 1013.5
20260510070057 18 80 0.0 4.8 0.05 7.01 0.08 94 1013.6
20260510065552 18 59 1.6 6.4 0.03 7.04 0.05 94 1013.6
20260510065052 18 0 1.6 6.4 0.03 7.04 0.05 94 1013.6
20260510064553 18 117 1.6 4.8 0.03 7.04 0.05 94 1013.6
20260510064051 18 0 1.6 3.2 0.03 7.04 0.05 94 1013.8
20260510063550 18 72 0.0 4.8 0.03 7.04 0.05 94 1013.8
20260510063055 18 0 0.0 4.8 0.03 7.04 0.05 94 1013.9
20260510062550 18 26 1.6 4.8 0.03 7.04 0.05 94 1014.0
20260510062049 18 0 0.0 4.8 0.03 7.04 0.05 94 1013.8
20260510061603 18 0 0.0 3.2 0.03 7.04 0.05 94 1013.9
20260510061055 18 0 0.0 1.6 0.05 7.04 0.05 94 1013.9
20260510060552 18 0 0.0 1.6 0.05 7.04 0.05 94 1013.9
20260510060054 19 88 0.0 3.2 0.03 7.01 0.03 94 1014.0
20260510055551 19 0 0.0 3.2 0.03 8.10 0.03 94 1014.0
20260510055050 19 69 0.0 3.2 0.03 8.10 0.03 94 1014.0
20260510054600 19 0 0.0 4.8 0.03 8.10 0.03 94 1014.0
20260510054051 19 46 0.0 4.8 0.03 8.10 0.03 94 1014.0
20260510053551 19 45 0.0 3.2 0.03 8.10 0.03 94 1013.9
20260510053055 19 0 0.0 1.6 0.03 8.10 0.03 94 1013.8
20260510052551 19 0 0.0 1.6 0.05 8.10 0.03 94 1013.9
20260510052050 19 0 0.0 1.6 0.05 8.10 0.03 94 1013.9
20260510051554 19 45 0.0 1.6 0.05 8.10 0.03 94 1014.0
20260510051053 19 0 0.0 3.2 0.03 8.08 0.00 94 1013.8
20260510050552 19 0 0.0 3.2 0.03 8.08 0.00 94 1014.0
20260510050055 19 84 0.0 1.6 0.03 8.08 0.00 94 1013.9
20260510045553 19 0 0.0 1.6 0.03 8.08 8.08 94 1014.0
20260510045050 19 0 0.0 1.6 0.03 8.08 8.08 94 1013.9
20260510044556 19 0 0.0 3.2 0.05 8.08 8.08 94 1013.9
20260510044052 19 0 0.0 3.2 0.05 8.08 8.08 94 1013.9
20260510043552 19 0 1.6 3.2 0.05 8.08 8.08 94 1013.8
20260510043056 19 0 0.0 3.2 0.05 8.08 8.08 94 1013.6
20260510042556 19 98 0.0 3.2 0.03 8.05 8.05 94 1013.8
20260510042051 20 98 0.0 3.2 0.03 8.05 8.05 94 1013.7
20260510041634 20 0 0.0 4.8 0.03 8.05 8.05 94 1013.8
20260510041050 20 327 0.0 4.8 0.05 8.05 8.05 94 1013.8
20260510040550 20 318 1.6 4.8 0.05 8.05 8.05 94 1013.8
20260510040056 20 266 0.0 4.8 0.05 8.05 8.05 94 1013.6
20260510035549 20 85 1.6 8.0 0.05 8.05 8.05 94 1013.2
20260510035052 20 109 1.6 8.0 0.05 8.05 8.05 94 1013.3
20260510034558 20 160 1.6 4.8 0.03 8.03 8.03 94 1013.6
20260510034055 20 131 0.0 3.2 0.03 8.03 8.03 94 1014.0
20260510033552 20 296 0.0 1.6 0.05 8.03 8.03 94 1014.2
20260510033116 20 296 0.0 1.6 0.05 8.03 8.03 94 1014.4
20260510032549 20 0 0.0 1.6 0.05 8.03 8.03 94 1014.6
20260510032052 20 0 0.0 3.2 0.05 8.03 8.03 94 1014.5
20260510031557 20 0 0.0 3.2 0.05 8.03 8.03 94 1014.5
20260510031053 20 295 0.0 3.2 0.05 8.00 8.00 94 1014.6
20260510030549 20 295 0.0 3.2 0.05 8.00 8.00 94 1014.5
20260510030056 20 81 1.6 3.2 0.05 8.00 8.00 94 1014.2
20260510025552 20 350 1.6 3.2 0.05 8.00 8.00 94 1014.4
20260510025054 20 5 0.0 3.2 0.05 8.00 8.00 94 1014.2
20260510024609 20 0 0.0 3.2 0.08 8.00 8.00 94 1014.1
20260510024053 20 109 0.0 3.2 0.08 8.00 8.00 94 1013.9
20260510023549 20 0 0.0 3.2 0.05 7.98 7.98 94 1013.9
20260510023100 20 123 0.0 3.2 0.05 7.98 7.98 94 1013.7
20260510022553 20 123 1.6 3.2 0.05 7.98 7.98 94 1013.8
20260510022052 20 123 0.0 3.2 0.08 7.98 7.98 94 1013.9
20260510021602 20 0 0.0 3.2 0.08 7.98 7.98 94 1013.9
20260510021053 20 0 0.0 3.2 0.05 7.95 7.95 94 1014.0
20260510020554 20 117 0.0 9.7 0.05 7.95 7.95 94 1013.9
20260510020114 20 165 1.6 9.7 0.08 7.95 7.95 94 1014.1
20260510015552 20 333 3.2 9.7 0.08 7.95 7.95 94 1014.3
20260510015051 20 306 3.2 6.4 0.08 7.95 7.95 94 1014.2
20260510014616 20 305 1.6 6.4 0.08 7.92 7.92 94 1013.7
20260510014051 20 292 1.6 6.4 0.08 7.92 7.92 94 1013.5
20260510013551 20 316 1.6 6.4 0.08 7.92 7.92 94 1013.2
20260510013105 20 223 1.6 6.4 0.08 7.92 7.92 94 1012.9
20260510012555 20 0 0.0 12.9 0.10 7.92 7.92 94 1012.8
20260510012053 20 234 1.6 12.9 0.08 7.90 7.90 94 1013.0
20260510011607 20 161 1.6 8.0 0.08 7.90 7.90 94 1012.9
20260510011052 20 146 1.6 8.0 0.10 7.90 7.90 94 1012.8
20260510010552 20 117 1.6 8.0 0.10 7.90 7.90 94 1012.9
20260510010056 20 190 0.0 6.4 0.08 7.87 7.87 94 1012.9
20260510005552 20 141 1.6 6.4 0.10 7.90 7.87 94 1012.8
20260510005053 20 200 1.6 4.8 0.10 7.90 7.87 94 1013.1
20260510004606 20 120 0.0 3.2 0.08 7.87 7.85 94 1013.3
20260510004051 20 125 1.6 4.8 0.10 7.87 7.85 94 1013.4
20260510003553 20 0 0.0 6.4 0.10 7.87 7.85 94 1013.5
20260510003056 20 339 3.2 8.0 0.10 7.87 7.85 94 1013.6
20260510002550 20 237 0.0 8.0 0.10 7.85 7.82 94 1013.2
20260510002049 20 217 1.6 8.0 0.10 7.85 7.82 94 1012.7
20260510001556 20 105 1.6 6.4 0.13 7.85 7.82 94 1012.5
20260510001052 20 138 1.6 6.4 0.10 7.82 7.80 94 1012.3
20260510000554 20 0 3.2 6.4 0.10 7.82 7.80 94 1012.3
20260510000056 20 87 0.0 3.2 0.13 7.82 7.80 94 1012.5
20260509235648 20 87 0.0 3.2 0.10 7.80 7.77 94 1012.8
20260509235052 20 139 0.0 3.2 0.13 7.80 7.77 94 1013.3
20260509234554 20 248 0.0 3.2 0.13 7.80 7.77 94 1013.4
20260509234052 20 0 0.0 3.2 0.13 7.77 7.75 94 1013.2
20260509233549 20 112 1.6 3.2 0.13 7.77 7.75 94 1012.9
20260509233053 20 178 0.0 3.2 0.15 7.77 7.75 94 1013.2
20260509232553 20 0 0.0 3.2 0.13 7.75 7.72 94 1013.5
20260509232049 20 0 0.0 3.2 0.15 7.75 7.72 94 1013.6
20260509231604 20 0 0.0 3.2 0.15 7.72 7.70 94 1013.1
20260509231052 20 0 0.0 0.0 0.15 7.72 7.70 94 1013.1
20260509230554 20 0 0.0 3.2 0.18 7.72 7.70 94 1013.1
20260509230058 20 0 0.0 3.2 0.15 7.70 7.67 94 1013.3
20260509225552 20 0 0.0 3.2 0.18 7.98 7.67 94 1013.5
20260509225051 20 254 0.0 3.2 0.18 7.95 7.65 94 1013.3
20260509224556 19 355 1.6 3.2 0.18 7.95 7.65 94 1012.7
20260509224051 20 234 0.0 4.8 0.18 7.92 7.62 94 1012.7
20260509223552 19 234 0.0 4.8 0.20 7.92 7.62 94 1012.7
20260509223056 19 244 1.6 4.8 0.20 7.90 7.59 94 1012.5
20260509222549 19 0 0.0 4.8 0.20 7.90 7.59 94 1011.9
20260509222049 19 46 1.6 4.8 0.20 7.87 7.57 94 1012.0
20260509221553 19 163 0.0 4.8 0.20 7.85 7.54 94 1012.2
20260509221050 19 0 1.6 4.8 0.23 7.85 7.54 94 1012.7
20260509220550 19 298 1.6 4.8 0.20 7.82 7.52 94 1012.9
20260509220058 19 0 1.6 3.2 0.20 7.80 7.49 94 1013.0
20260509215554 19 52 0.0 4.8 0.23 7.95 7.49 94 1012.8
20260509215052 19 0 0.0 4.8 0.23 7.92 7.47 94 1012.6
20260509214556 19 208 0.0 4.8 0.23 7.90 7.44 94 1012.6
20260509214053 19 184 0.0 4.8 0.25 7.90 7.44 94 1012.4
20260509213551 19 130 1.6 4.8 0.25 7.87 7.42 94 1012.4
20260509213055 19 0 1.6 3.2 0.25 7.85 7.39 94 1012.5
20260509212552 19 0 0.0 4.8 0.28 7.85 7.39 94 1012.4
20260509212052 19 0 1.6 4.8 0.28 7.82 7.37 94 1012.5
20260509211558 19 267 0.0 6.4 0.25 7.80 7.34 94 1012.5
20260509211050 19 0 3.2 6.4 0.25 7.77 7.32 94 1012.2
20260509210552 19 315 3.2 6.4 0.28 7.77 7.32 94 1011.8
20260509210105 19 267 1.6 9.7 0.28 7.75 7.29 94 1011.2
20260509205551 19 0 1.6 9.7 0.28 8.23 7.26 94 1011.1
20260509205051 19 82 1.6 6.4 0.28 8.20 7.24 94 1011.2
20260509204553 19 150 1.6 8.0 0.28 8.18 7.21 94 1011.5
20260509204052 19 0 3.2 9.7 0.28 8.15 7.19 94 1011.8
20260509203554 20 98 1.6 9.7 0.28 8.13 7.16 94 1011.9
20260509203054 20 272 3.2 6.4 0.28 8.10 7.14 94 1011.8
20260509202556 19 165 1.6 6.4 0.28 8.08 7.11 94 1011.6
20260509202053 19 155 1.6 6.4 0.28 8.05 7.09 94 1011.9
20260509201552 19 107 1.6 4.8 0.28 8.03 7.06 94 1012.2
20260509201052 19 107 1.6 6.4 0.28 8.00 7.04 94 1012.5
20260509200553 19 85 1.6 8.0 0.28 7.98 7.01 94 1013.0
20260509200056 19 146 1.6 8.0 0.30 7.98 7.01 94 1013.4
20260509195553 19 144 1.6 6.4 0.30 8.20 6.99 94 1013.6
20260509195049 19 250 1.6 6.4 0.28 8.18 6.96 94 1013.8
20260509194553 19 286 1.6 6.4 0.28 8.15 6.93 94 1013.6
20260509194052 19 284 1.6 6.4 0.28 8.13 6.91 94 1013.7
20260509193552 18 0 1.6 6.4 0.28 8.10 6.88 94 1013.5
20260509193055 18 244 3.2 6.4 0.28 8.08 6.86 94 1013.4
20260509192555 18 177 1.6 6.4 0.28 8.05 6.83 94 1013.0
20260509192052 18 54 1.6 4.8 0.28 8.03 6.81 94 1013.3
20260509191553 18 0 0.0 4.8 0.28 8.00 6.78 94 1013.7
20260509191053 18 0 1.6 4.8 0.28 7.98 6.76 94 1013.8
20260509190551 18 0 0.0 3.2 0.28 7.95 6.73 94 1013.6
20260509190054 18 177 0.0 4.8 0.30 7.92 6.71 94 1013.5
20260509185552 18 295 0.0 4.8 0.30 7.90 6.68 94 1013.5
20260509185049 18 69 0.0 4.8 0.33 7.90 6.68 94 1013.4
20260509184553 18 77 0.0 4.8 0.33 7.87 6.65 94 1013.4
20260509184052 18 0 0.0 4.8 0.33 7.85 6.63 94 1013.6
20260509183552 18 250 0.0 4.8 0.33 7.82 6.60 94 1013.8
20260509183052 18 0 1.6 6.4 0.33 7.80 6.58 94 1014.1
20260509182552 18 248 1.6 6.4 0.36 7.77 6.55 94 1013.8
20260509182051 18 135 0.0 4.8 0.36 7.75 6.53 94 1013.6
20260509181552 18 0 1.6 9.7 0.36 7.72 6.50 94 1013.1
20260509181049 18 0 1.6 9.7 0.38 7.70 6.48 94 1013.4
20260509180551 18 115 3.2 11.3 0.38 7.67 6.45 94 1013.2
20260509180054 18 148 1.6 11.3 0.36 7.62 6.40 94 1013.1
20260509175551 18 122 3.2 9.7 0.38 7.59 6.38 94 1012.9
20260509175052 18 116 3.2 9.7 0.38 7.57 6.35 94 1013.6
20260509174552 18 220 3.2 8.0 0.41 7.54 6.32 94 1013.4
20260509174051 18 200 0.0 9.7 0.41 7.52 6.30 94 1013.1
20260509173552 18 132 3.2 9.7 0.43 7.49 6.27 94 1013.0
20260509173118 18 53 1.6 8.0 0.46 7.47 6.25 94 1013.5
20260509172549 18 0 1.6 11.3 0.43 7.42 6.20 94 1013.6
20260509172051 18 10 1.6 11.3 0.46 7.39 6.17 94 1013.7
20260509171549 18 126 1.6 6.4 0.46 7.37 6.15 94 1013.9
20260509171051 18 220 1.6 6.4 0.46 7.32 6.10 94 1013.7
20260509170553 18 0 1.6 11.3 0.46 7.29 6.07 94 1013.7
20260509165551 18 121 6.4 14.5 0.46 7.21 5.97 94 1013.3
20260509165048 18 87 3.2 11.3 0.48 7.19 5.94 94 1013.2